sat.trackr.live / text

‹ back to catalog

2024-173D

NORAD 61230 · 2024-173D

PAYLOAD ACTIVE UNKNOWN

§ Identity

Operator
Country
PRC
Launch date
2024-09-24
Launch site
YSLA
Launch vehicle
Mass (kg)
RCS (m²)

External: N2YO · Heavens-Above · Gunter

§ Orbital elements

Epoch: 2026-09-22T23:22:33.154176Z

Period
93.96 min
Inclination
97.3494°
Eccentricity
0.0007366
Mean motion
15.32561603 rev/d
Perigee alt
463.1 km
Apogee alt
473.2 km
Semi-major
6,846.3 km
B*
3.7131e-4
RAAN
344.4065°
Arg perigee
265.2048°
Mean anomaly
94.8353°
Rev number
11,142

§ Raw data

2024-173D1 61230U 24173D   26265.97399484  .00011611  00000+0  37131-3 0  99902 61230  97.3494 344.4065 0007366 265.2048  94.8353 15.32561603111428

JSON: /api/v1/satellites/61230 · /tle

For live sub-satellite position, see the globe view (requires WebGL).

§ Visibility from observer

Set your observer location to see the next 7 days of passes ≥ 10°. The values pass through the URL so the page stays shareable.

No JS? Fill the form by hand. The geolocation button needs JavaScript.